Weather History for Redmond, OR

Change the Weather History Date:

Friday, October 25, 2013

  Actual Average Record
Temperature  
Mean Temperature 52 °F 44 °F  
Max Temperature 72 °F 59 °F 84 °F (1988)
Min Temperature 31 °F 30 °F 13 °F (2011)
Degree Days  
Heating Degree Days 13 21  
Month to date heating degree days 510 417  
Since 1 July heating degree days 776 816  
Cooling Degree Days 0 0  
Month to date cooling degree days 0 0  
Year to date cooling degree days 350 222  
Growing Degree Days 2 (Base 50)    
Moisture  
Dew Point 33 °F    
Average Humidity 56    
Maximum Humidity 89    
Minimum Humidity 22    
Precipitation  
Precipitation 0.00 in 0.02 in 0.82 in (1956)
Month to date precipitation 0.05 0.48  
Year to date precipitation 4.14 6.62  
Sea Level Pressure  
Sea Level Pressure 30.21 in    
Wind  
Wind Speed 4 mph (South)    
Max Wind Speed 13 mph    
Max Gust Speed 15 mph    
Visibility 10 miles    
Events      
T = Trace of Precipitation, MM = Missing Value Source: NWS Daily Summary

Daily Weather History Graph

Daily Weather History Graph

Search for Another Location

Airport:

Trip Planner

Search our weather history database for the weather conditions in past years. The results will help you decide how hot, cold, wet, or windy it might be!

Date:

Astronomy

Oct. 25, 2013 Rise Set
Actual Time 7:32 AM PDT 6:03 PM PDT
Civil Twilight 7:02 AM PDT 6:33 PM PDT
Nautical Twilight 6:29 AM PDT 7:07 PM PDT
Astronomical Twilight 5:55 AM PDT 7:40 PM PDT
Moon 11:25 PM PDT (10/25) 1:19 PM PDT (10/25)
Length of Visible Light 11h 30m
Length of Day
10h 31m
Waning Gibbous, 61% of the Moon is Illuminated
Oct 25
Waning Gibbous
Oct 26
Last Quarter
Nov 3
New
Nov 9
First Quarter
Nov 17
Full

Hourly Weather History & Observations

Time (PDT) Temp. Windchill Dew Point Humidity Pressure Visibility Wind Dir Wind Speed Gust Speed Precip Events Conditions
12:56 AM 37.0 °F - 33.1 °F 86% 30.15 in 10.0 mi Calm Calm - N/A   Clear
1:56 AM 37.0 °F 32.4 °F 33.1 °F 86% 30.15 in 10.0 mi South 5.8 mph - N/A   Clear
2:56 AM 35.1 °F 30.1 °F 30.9 °F 85% 30.15 in 10.0 mi SSE 5.8 mph - N/A   Clear
3:56 AM 36.0 °F 33.3 °F 30.9 °F 82% 30.15 in 10.0 mi SSE 3.5 mph - N/A   Clear
4:56 AM 33.1 °F 28.7 °F 30.0 °F 89% 30.18 in 10.0 mi SE 4.6 mph - N/A   Clear
5:56 AM 34.0 °F - 30.0 °F 85% 30.20 in 10.0 mi Calm Calm - N/A   Clear
6:56 AM 32.0 °F 27.5 °F 28.9 °F 88% 30.22 in 10.0 mi SSE 4.6 mph - N/A   Clear
7:56 AM 34.0 °F 29.8 °F 30.0 °F 85% 30.24 in 10.0 mi SSE 4.6 mph - N/A   Clear
8:56 AM 42.1 °F - 33.1 °F 70% 30.24 in 10.0 mi Calm Calm - N/A   Clear
9:56 AM 48.9 °F - 34.0 °F 56% 30.25 in 10.0 mi SE 5.8 mph - N/A   Clear
10:56 AM 55.9 °F - 32.0 °F 40% 30.24 in 10.0 mi SSE 4.6 mph - N/A   Clear
11:56 AM 62.1 °F - 34.0 °F 35% 30.22 in 10.0 mi Calm Calm - N/A   Clear
12:56 PM 66.9 °F - 34.0 °F 30% 30.20 in 10.0 mi Calm Calm - N/A   Clear
1:56 PM 70.0 °F - 28.9 °F 22% 30.18 in 10.0 mi NNW 4.6 mph - N/A   Clear
2:56 PM 72.0 °F - 30.9 °F 22% 30.17 in 10.0 mi North 8.1 mph - N/A   Clear
3:56 PM 70.0 °F - 35.1 °F 28% 30.18 in 10.0 mi NNW 8.1 mph - N/A   Clear
4:56 PM 66.9 °F - 37.0 °F 33% 30.19 in 10.0 mi NNW 10.4 mph - N/A   Clear
5:56 PM 61.0 °F - 36.0 °F 39% 30.20 in 10.0 mi NNW 5.8 mph - N/A   Clear
6:56 PM 57.0 °F - 36.0 °F 45% 30.23 in 10.0 mi WNW 6.9 mph - N/A   Clear
7:56 PM 52.0 °F - 36.0 °F 54% 30.25 in 10.0 mi WSW 4.6 mph - N/A   Clear
8:56 PM 45.0 °F 43.5 °F 34.0 °F 65% 30.26 in 10.0 mi SSW 3.5 mph - N/A   Clear
9:56 PM 42.1 °F - 33.1 °F 70% 30.27 in 10.0 mi Calm Calm - N/A   Clear
10:56 PM 39.9 °F 37.8 °F 32.0 °F 73% 30.27 in 10.0 mi SSE 3.5 mph - N/A   Clear
11:56 PM 39.0 °F 35.7 °F 30.9 °F 73% 30.26 in 10.0 mi South 4.6 mph - N/A   Clear